Torna al catalogo

DELTA 1 DEB

AttivoSSO
NORAD 7030·DEBRIS·🇺🇸 United States

Lanciato Nov 6, 1973 da Vandenberg Space Force Base

Loading…

Prossimi Passaggi (prossime 24 ore)

TLE

AggiornatoSource: Space-Track

Epoca: Sep 14, 2026, 11:30 UTC

1 07030U 73086W   26257.47927007 -.00000018  00000-0  22193-3 0  9992
2 07030 101.9422 245.5703 0090938  20.3946 132.2137 12.24109529360575

Traccia DELTA 1 DEB in tempo reale con AllMySat

Download on the App Store